Time,TemperatureF,DewpointF,PressureIn,WindDirection,WindDirectionDegrees,WindSpeedMPH,WindSpeedGustMPH,Humidity,HourlyPrecipIn,Conditions,Clouds,dailyrainin,SoftwareType,DateUTC
2013-07-15 00:01:00,61.0,47.0,29.99,North,11,5.0,12.0,60,0.00,,,0.00,,2013-07-15 07:01:00,
2013-07-15 00:11:00,61.0,47.0,29.99,NNE,20,4.0,9.0,60,0.00,,,0.00,,2013-07-15 07:11:00,
2013-07-15 00:21:00,61.0,47.0,29.99,NE,56,2.0,11.0,60,0.00,,,0.00,,2013-07-15 07:21:00,
2013-07-15 00:43:00,61.0,47.0,29.99,North,8,2.0,15.0,60,0.00,,,0.00,,2013-07-15 07:43:00,
2013-07-15 00:53:00,61.0,47.0,29.99,North,8,5.0,11.0,60,0.00,,,0.00,,2013-07-15 07:53:00,
2013-07-15 01:01:00,61.0,47.0,30.00,NNE,27,1.0,12.0,60,0.00,,,0.00,,2013-07-15 08:01:00,
2013-07-15 01:11:00,61.0,47.0,29.99,NNE,22,3.0,8.0,61,0.00,,,0.00,,2013-07-15 08:11:00,
2013-07-15 01:32:00,61.0,48.0,29.99,NE,34,4.0,11.0,62,0.00,,,0.00,,2013-07-15 08:32:00,
2013-07-15 01:43:00,61.0,48.0,30.00,NE,47,3.0,7.0,63,0.00,,,0.00,,2013-07-15 08:43:00,
2013-07-15 01:53:00,60.0,47.0,30.00,NE,49,2.0,7.0,63,0.00,,,0.00,,2013-07-15 08:53:00,
2013-07-15 02:01:00,60.0,48.0,30.00,North,0,0.0,4.0,64,0.00,,,0.00,,2013-07-15 09:01:00,
2013-07-15 02:11:00,60.0,49.0,29.99,NNE,31,1.0,3.0,66,0.00,,,0.00,,2013-07-15 09:11:00,
2013-07-15 02:22:00,60.0,49.0,29.99,North,0,0.0,4.0,67,0.00,,,0.00,,2013-07-15 09:22:00,
2013-07-15 02:32:00,59.0,48.0,29.99,North,0,0.0,4.0,67,0.00,,,0.00,,2013-07-15 09:32:00,
2013-07-15 02:42:00,59.0,48.0,29.99,NNE,15,1.0,5.0,68,0.00,,,0.00,,2013-07-15 09:42:00,
2013-07-15 02:52:00,59.0,48.0,29.99,NNE,20,1.0,5.0,68,0.00,,,0.00,,2013-07-15 09:52:00,
2013-07-15 03:01:00,59.0,49.0,29.99,North,0,0.0,3.0,69,0.00,,,0.00,,2013-07-15 10:01:00,
2013-07-15 03:11:00,58.0,48.0,30.00,NNE,18,1.0,4.0,70,0.00,,,0.00,,2013-07-15 10:11:00,
2013-07-15 03:21:00,58.0,49.0,29.99,North,4,1.0,3.0,72,0.00,,,0.00,,2013-07-15 10:21:00,
2013-07-15 03:32:00,58.0,49.0,29.99,North,0,0.0,6.0,72,0.00,,,0.00,,2013-07-15 10:32:00,
2013-07-15 03:42:00,58.0,49.0,29.99,North,0,0.0,3.0,73,0.00,,,0.00,,2013-07-15 10:42:00,
2013-07-15 03:52:00,57.0,49.0,29.99,North,0,0.0,3.0,74,0.00,,,0.00,,2013-07-15 10:52:00,
2013-07-15 04:01:00,57.0,50.0,29.99,North,0,0.0,3.0,76,0.00,,,0.00,,2013-07-15 11:01:00,
2013-07-15 04:11:00,57.0,50.0,30.00,NE,39,1.0,5.0,76,0.00,,,0.00,,2013-07-15 11:11:00,
2013-07-15 04:32:00,56.0,50.0,30.00,NNE,15,3.0,5.0,79,0.00,,,0.00,,2013-07-15 11:32:00,
2013-07-15 04:42:00,56.0,50.0,30.00,NNE,27,1.0,4.0,79,0.00,,,0.00,,2013-07-15 11:42:00,
2013-07-15 04:52:00,56.0,50.0,30.00,North,0,0.0,1.0,79,0.00,,,0.00,,2013-07-15 11:52:00,
2013-07-15 05:01:00,56.0,50.0,30.00,North,0,0.0,2.0,79,0.00,,,0.00,,2013-07-15 12:01:00,
2013-07-15 05:22:00,56.0,50.0,30.00,East,89,1.0,4.0,80,0.00,,,0.00,,2013-07-15 12:22:00,
2013-07-15 05:32:00,56.0,50.0,30.00,ENE,73,1.0,4.0,80,0.00,,,0.00,,2013-07-15 12:32:00,
2013-07-15 05:42:00,56.0,50.0,30.00,East,86,3.0,5.0,80,0.00,,,0.00,,2013-07-15 12:42:00,
2013-07-15 05:52:00,56.0,50.0,30.00,East,89,1.0,4.0,80,0.00,,,0.00,,2013-07-15 12:52:00,
2013-07-15 06:01:00,56.0,50.0,30.00,North,0,0.0,3.0,79,0.00,,,0.00,,2013-07-15 13:01:00,
2013-07-15 06:11:00,56.0,50.0,30.01,North,0,0.0,3.0,79,0.00,,,0.00,,2013-07-15 13:11:00,
2013-07-15 06:32:00,56.0,49.0,30.01,NE,43,1.0,4.0,78,0.00,,,0.00,,2013-07-15 13:32:00,
2013-07-15 06:43:00,57.0,50.0,30.01,North,0,0.0,5.0,77,0.00,,,0.00,,2013-07-15 13:43:00,
2013-07-15 06:53:00,58.0,50.0,30.01,NNE,21,1.0,4.0,76,0.00,,,0.00,,2013-07-15 13:53:00,
2013-07-15 07:02:00,59.0,50.0,30.01,North,0,0.0,5.0,72,0.00,,,0.00,,2013-07-15 14:02:00,
2013-07-15 07:11:00,59.0,50.0,30.01,ENE,58,1.0,4.0,72,0.00,,,0.00,,2013-07-15 14:11:00,
2013-07-15 07:33:00,60.0,50.0,30.01,NNE,30,1.0,7.0,70,0.00,,,0.00,,2013-07-15 14:33:00,
2013-07-15 07:42:00,61.0,51.0,30.01,NNE,18,2.0,9.0,69,0.00,,,0.00,,2013-07-15 14:42:00,
2013-07-15 07:53:00,60.0,50.0,30.01,North,11,3.0,9.0,69,0.00,,,0.00,,2013-07-15 14:53:00,
2013-07-15 08:02:00,60.0,50.0,30.01,NNE,28,3.0,10.0,70,0.00,,,0.00,,2013-07-15 15:02:00,
2013-07-15 08:11:00,61.0,52.0,30.01,NNW,329,2.0,9.0,71,0.00,,,0.00,,2013-07-15 15:11:00,
2013-07-15 08:21:00,62.0,52.0,30.01,NNE,31,3.0,7.0,69,0.00,,,0.00,,2013-07-15 15:21:00,
2013-07-15 08:33:00,62.0,52.0,30.01,NNE,31,3.0,7.0,69,0.00,,,0.00,,2013-07-15 15:33:00,
2013-07-15 08:43:00,62.0,52.0,30.01,NNW,335,3.0,11.0,69,0.00,,,0.00,,2013-07-15 15:43:00,
2013-07-15 08:52:00,63.0,52.0,30.01,NNE,16,3.0,7.0,68,0.00,,,0.00,,2013-07-15 15:52:00,
2013-07-15 09:01:00,63.0,52.0,30.01,ESE,105,4.0,10.0,68,0.00,,,0.00,,2013-07-15 16:01:00,
2013-07-15 09:12:00,63.0,52.0,30.01,NE,37,6.0,12.0,67,0.00,,,0.00,,2013-07-15 16:12:00,
2013-07-15 09:32:00,64.0,52.0,30.01,North,353,3.0,12.0,66,0.00,,,0.00,,2013-07-15 16:32:00,
2013-07-15 09:42:00,63.0,52.0,30.01,North,10,6.0,10.0,67,0.00,,,0.00,,2013-07-15 16:42:00,
2013-07-15 09:52:00,64.0,53.0,30.01,North,351,5.0,12.0,67,0.00,,,0.00,,2013-07-15 16:52:00,
2013-07-15 10:02:00,64.0,53.0,30.01,NW,305,4.0,14.0,67,0.00,,,0.00,,2013-07-15 17:02:00,
2013-07-15 10:12:00,64.0,53.0,30.00,NNE,16,4.0,15.0,67,0.00,,,0.00,,2013-07-15 17:12:00,
2013-07-15 10:43:00,65.0,53.0,30.00,NNE,17,6.0,17.0,66,0.00,,,0.00,,2013-07-15 17:43:00,
2013-07-15 10:52:00,65.0,53.0,30.00,NNW,340,3.0,14.0,66,0.00,,,0.00,,2013-07-15 17:52:00,
2013-07-15 11:01:00,66.0,54.0,30.00,NNE,22,4.0,19.0,65,0.00,,,0.00,,2013-07-15 18:01:00,
2013-07-15 11:11:00,65.0,53.0,30.00,NNE,22,5.0,14.0,65,0.00,,,0.00,,2013-07-15 18:11:00,
2013-07-15 11:44:00,66.0,53.0,30.00,North,3,7.0,15.0,62,0.00,,,0.00,,2013-07-15 18:44:00,
2013-07-15 11:52:00,66.0,53.0,30.00,North,355,2.0,16.0,62,0.00,,,0.00,,2013-07-15 18:52:00,
2013-07-15 12:01:00,67.0,53.0,30.00,NNE,24,5.0,17.0,61,0.00,,,0.00,,2013-07-15 19:01:00,
2013-07-15 12:11:00,67.0,53.0,30.00,NNE,18,4.0,14.0,60,0.00,,,0.00,,2013-07-15 19:11:00,
2013-07-15 12:22:00,67.0,53.0,30.00,NNE,18,4.0,14.0,60,0.00,,,0.00,,2013-07-15 19:22:00,
2013-07-15 12:32:00,67.0,53.0,30.00,NNE,18,4.0,14.0,60,0.00,,,0.00,,2013-07-15 19:32:00,
2013-07-15 12:52:00,69.0,52.0,29.99,NNW,330,8.0,15.0,54,0.00,,,0.00,,2013-07-15 19:52:00,
2013-07-15 13:03:00,69.0,52.0,29.99,North,355,6.0,15.0,55,0.00,,,0.00,,2013-07-15 20:03:00,
2013-07-15 13:31:00,70.0,52.0,29.98,North,357,6.0,12.0,52,0.00,,,0.00,,2013-07-15 20:31:00,
2013-07-15 13:43:00,70.0,51.0,29.98,North,359,5.0,20.0,51,0.00,,,0.00,,2013-07-15 20:43:00,
2013-07-15 14:01:00,71.0,50.0,29.98,NNW,333,8.0,17.0,48,0.00,,,0.00,,2013-07-15 21:01:00,
2013-07-15 14:11:00,71.0,50.0,29.98,NW,323,7.0,14.0,47,0.00,,,0.00,,2013-07-15 21:11:00,
2013-07-15 14:22:00,71.0,50.0,29.97,NNW,348,9.0,15.0,47,0.00,,,0.00,,2013-07-15 21:22:00,
2013-07-15 14:32:00,71.0,50.0,29.97,NNW,340,6.0,13.0,47,0.00,,,0.00,,2013-07-15 21:32:00,
2013-07-15 14:43:00,71.0,50.0,29.96,NNW,329,6.0,13.0,47,0.00,,,0.00,,2013-07-15 21:43:00,
2013-07-15 15:01:00,72.0,50.0,29.96,North,351,5.0,15.0,46,0.00,,,0.00,,2013-07-15 22:01:00,
2013-07-15 15:11:00,72.0,50.0,29.96,North,351,5.0,15.0,46,0.00,,,0.00,,2013-07-15 22:11:00,
2013-07-15 15:43:00,72.0,49.0,29.94,NNW,330,7.0,14.0,45,0.00,,,0.00,,2013-07-15 22:43:00,
2013-07-15 15:52:00,72.0,50.0,29.94,NNE,15,7.0,14.0,46,0.00,,,0.00,,2013-07-15 22:52:00,
2013-07-15 16:22:00,72.0,49.0,29.94,NNW,340,6.0,15.0,44,0.00,,,0.00,,2013-07-15 23:22:00,
2013-07-15 16:43:00,73.0,49.0,29.92,NW,324,6.0,14.0,42,0.00,,,0.00,,2013-07-15 23:43:00,
2013-07-15 17:11:00,73.0,47.0,29.92,NW,316,4.0,14.0,39,0.00,,,0.00,,2013-07-16 00:11:00,
2013-07-15 17:22:00,73.0,46.0,29.92,NNW,330,6.0,18.0,38,0.00,,,0.00,,2013-07-16 00:22:00,
2013-07-15 17:52:00,73.0,44.0,29.91,NNW,336,7.0,14.0,35,0.00,,,0.00,,2013-07-16 00:52:00,
2013-07-15 18:02:00,73.0,44.0,29.90,NW,306,7.0,14.0,35,0.00,,,0.00,,2013-07-16 01:02:00,
2013-07-15 18:22:00,73.0,44.0,29.90,NNW,341,5.0,14.0,35,0.00,,,0.00,,2013-07-16 01:22:00,
2013-07-15 18:43:00,73.0,43.0,29.89,NNW,341,7.0,14.0,34,0.00,,,0.00,,2013-07-16 01:43:00,
2013-07-15 18:53:00,73.0,43.0,29.89,North,4,6.0,13.0,34,0.00,,,0.00,,2013-07-16 01:53:00,
2013-07-15 19:01:00,73.0,43.0,29.88,NW,306,7.0,12.0,34,0.00,,,0.00,,2013-07-16 02:01:00,
2013-07-15 19:11:00,73.0,43.0,29.88,North,355,6.0,15.0,34,0.00,,,0.00,,2013-07-16 02:11:00,
2013-07-15 19:33:00,73.0,43.0,29.88,NNW,345,4.0,15.0,34,0.00,,,0.00,,2013-07-16 02:33:00,
2013-07-15 19:43:00,73.0,43.0,29.88,North,8,4.0,11.0,34,0.00,,,0.00,,2013-07-16 02:43:00,
2013-07-15 20:01:00,72.0,42.0,29.87,NNW,342,6.0,12.0,34,0.00,,,0.00,,2013-07-16 03:01:00,
2013-07-15 20:53:00,70.0,44.0,29.87,NNE,12,4.0,12.0,39,0.00,,,0.00,,2013-07-16 03:53:00,
2013-07-15 21:12:00,70.0,44.0,29.87,NNW,346,2.0,7.0,39,0.00,,,0.00,,2013-07-16 04:12:00,
2013-07-15 21:43:00,69.0,44.0,29.87,North,8,4.0,11.0,41,0.00,,,0.00,,2013-07-16 04:43:00,
2013-07-15 21:53:00,69.0,44.0,29.87,NE,34,4.0,9.0,41,0.00,,,0.00,,2013-07-16 04:53:00,
2013-07-15 22:01:00,68.0,45.0,29.87,North,0,0.0,1.0,44,0.00,,,0.00,,2013-07-16 05:01:00,
2013-07-15 22:11:00,68.0,45.0,29.88,North,354,2.0,4.0,44,0.00,,,0.00,,2013-07-16 05:11:00,
2013-07-15 22:21:00,68.0,45.0,29.88,NNE,28,2.0,9.0,43,0.00,,,0.00,,2013-07-16 05:21:00,
2013-07-15 22:32:00,68.0,45.0,29.88,NNE,19,2.0,7.0,43,0.00,,,0.00,,2013-07-16 05:32:00,
2013-07-15 22:52:00,68.0,45.0,29.88,NNE,24,3.0,7.0,43,0.00,,,0.00,,2013-07-16 05:52:00,
2013-07-15 23:01:00,68.0,45.0,29.88,NNE,14,3.0,7.0,43,0.00,,,0.00,,2013-07-16 06:01:00,
2013-07-15 23:11:00,68.0,45.0,29.88,NNE,27,4.0,8.0,43,0.00,,,0.00,,2013-07-16 06:11:00,
2013-07-15 23:43:00,67.0,44.0,29.87,NNE,29,2.0,9.0,43,0.00,,,0.00,,2013-07-16 06:43:00,
2013-07-15 23:52:00,67.0,44.0,29.87,NNE,24,3.0,7.0,44,0.00,,,0.00,,2013-07-16 06:52:00,